Weather History for KFOE - February, 2014

Change the Weather History Date:

Tuesday, February 18, 2014

  Actual Average Record
Temperature  
Mean Temperature 54 °F -  
Max Temperature 68 °F 44 °F 68 °F (2014)
Min Temperature 39 °F 24 °F -9 °F (1978)
Degree Days  
Heating Degree Days 10    
Growing Degree Days 4 (Base 50)    
Moisture  
Dew Point 27 °F    
Average Humidity 42    
Maximum Humidity 62    
Minimum Humidity 24    
Precipitation  
Precipitation 0.00 in - - ()
Sea Level Pressure  
Sea Level Pressure 29.83 in    
Wind  
Wind Speed 14 mph (SW)    
Max Wind Speed 24 mph    
Max Gust Speed 36 mph    
Visibility 10 miles    
Events      
Averages and records for this station are not official NWS values.
T = Trace of Precipitation, MM = Missing Value Source: NWS Daily Summary

Daily Weather History Graph

Daily Weather History Graph

Search for Another Location

Airport or City:

Trip Planner

Search our weather history database for the weather conditions in past years. The results will help you decide how hot, cold, wet, or windy it might be!

Date:

Astronomy

Feb. 18, 2014 Rise Set
Actual Time 7:10 AM CST 6:03 PM CST
Civil Twilight 6:42 AM CST 6:30 PM CST
Nautical Twilight 6:11 AM CST 7:01 PM CST
Astronomical Twilight 5:40 AM CST 7:32 PM CST
Moon 9:55 PM CST (2/18) 8:45 AM CST (2/18)
Length of Visible Light 11h 47m
Length of Day
10h 53m
Waning Gibbous, 87% of the Moon is Illuminated
Feb 18
Waning Gibbous
Feb 22
Last Quarter
Mar 1
New
Mar 8
First Quarter
Mar 16
Full

Hourly Weather History & Observations

Time (CST) Temp. Windchill Dew Point Humidity Pressure Visibility Wind Dir Wind Speed Gust Speed Precip Events Conditions
12:53 AM 41.0 °F 33.9 °F 25.0 °F 53% 29.96 in 10.0 mi SSW 12.7 mph - N/A   Clear
1:53 AM 41.0 °F 35.2 °F 25.0 °F 53% 29.94 in 10.0 mi South 9.2 mph - N/A   Clear
2:53 AM 42.1 °F 35.7 °F 25.0 °F 51% 29.91 in 10.0 mi South 11.5 mph - N/A   Clear
3:53 AM 43.0 °F 35.4 °F 25.0 °F 49% 29.86 in 10.0 mi South 16.1 mph - N/A   Clear
4:53 AM 42.1 °F 33.3 °F 25.0 °F 51% 29.84 in 10.0 mi SSW 19.6 mph - N/A   Clear
5:53 AM 42.1 °F 34.2 °F 25.0 °F 51% 29.82 in 10.0 mi SSW 16.1 mph - N/A   Clear
6:53 AM 43.0 °F 36.0 °F 25.0 °F 49% 29.81 in 10.0 mi SSW 13.8 mph - N/A   Clear
7:53 AM 42.1 °F 34.5 °F 26.1 °F 53% 29.81 in 10.0 mi South 15.0 mph - N/A   Clear
8:53 AM 45.0 °F 38.2 °F 26.1 °F 48% 29.82 in 10.0 mi SSW 15.0 mph - N/A   Clear
9:53 AM 51.1 °F - 27.0 °F 39% 29.80 in 10.0 mi SSW 19.6 mph 27.6 mph N/A   Clear
10:53 AM 55.9 °F - 28.0 °F 34% 29.76 in 10.0 mi SW 24.2 mph 35.7 mph N/A   Clear
11:53 AM 62.1 °F - 27.0 °F 26% 29.75 in 10.0 mi SW 19.6 mph 28.8 mph N/A   Clear
12:53 PM 64.0 °F - 27.0 °F 25% 29.73 in 10.0 mi WSW 24.2 mph 31.1 mph N/A   Clear
1:53 PM 66.9 °F - 28.9 °F 24% 29.71 in 10.0 mi WSW 16.1 mph - N/A   Clear
2:53 PM 68.0 °F - - N/A% 29.71 in 10.0 mi North - - N/A   Clear
3:53 PM 66.9 °F - 30.9 °F 26% 29.72 in 10.0 mi WSW 16.1 mph - N/A   Clear
4:53 PM 66.0 °F - 32.0 °F 28% 29.73 in 10.0 mi SW 9.2 mph - N/A   Clear
5:53 PM 57.9 °F - 30.0 °F 35% 29.75 in 10.0 mi SW 9.2 mph - N/A   Clear
6:53 PM 57.0 °F - 28.0 °F 33% 29.80 in 10.0 mi WNW 12.7 mph - N/A   Clear
7:53 PM 55.9 °F - 26.1 °F 32% 29.86 in 10.0 mi NW 19.6 mph - N/A   Clear
8:53 PM 53.1 °F - 27.0 °F 37% 29.92 in 10.0 mi North 15.0 mph 24.2 mph N/A   Clear
9:53 PM 50.0 °F - 28.9 °F 44% 29.95 in 10.0 mi North 9.2 mph - N/A   Clear
10:53 PM 42.1 °F 38.4 °F 27.0 °F 55% 29.97 in 10.0 mi NNW 5.8 mph - N/A   Clear
11:53 PM 39.0 °F 34.8 °F 27.0 °F 62% 29.98 in 10.0 mi West 5.8 mph - N/A   Clear